Location: Banska Bystrica
(48.7333°N, 19.1500°E)
Time: 11:12:54
(UTC+01:00)

ISS - Pass Details

Date: 31 January 2021
Orbit: 417 x 422 km, 51.6° (Epoch: 07 March)

Event Time Altitude Azimuth Distance (km) Brightness Sun altitude
Rises 19:41:02 0° 289° (WNW) 2,377 1.2 -29.9°
Reaches altitude 10° 19:43:16 10° 279° (W) 1,509 0.0 -30.3°
Enters shadow 19:43:59 15° 273° (W) 1,255 -0.6 -30.4°
